Temperature
19 18 18 17 17 17 17 17 17 17 17 17 17 17 17 17 17 16 16 16 16 16 16 16 16 15 15 15 15 15 15 15 15 15 16 16 16 16 16 16 16 16 16
18 18 18 17 17 17 17 17 17 17 17 17 17 17 17 17 17 16 16 16 16 16 16 15 15 15 15 15 15 15 15 15 15 15 16 16 15 16 16 16 16 16 16
18 18 17 17 17 17 17 17 17 17 17 17 17 17 17 17 16 16 16 16 16 15 15 15 15 15 15 15 15 15 15 15 15 15 16 16 16 16 16 16 16 16 16
18 18 17 17 17 17 17 17 17 17 17 17 17 17 17 17 17 16 16 16 16 15 15 15 15 15 15 15 15 15 15 15 15 15 15 16 16 16 16 16 16 16 16
18 18 18 17 17 17 17 17 17 16 17 17 17 17 17 17 17 16 16 16 15 15 15 15 15 15 15 15 15 15 15 15 15 15 15 16 16 16 16 16 16 16 16
18 18 17 17 17 17 17 17 17 16 16 16 16 17 17 17 16 16 16 16 16 15 15 15 15 15 15 15 15 15 15 15 15 15 15 15 15 16 16 16 16 16 16
18 18 17 17 17 17 17 16 16 16 16 16 16 16 17 17 16 16 16 16 16 16 15 15 15 15 15 14 14 14 15 15 15 15 15 15 15 15 15 16 16 16 16
18 18 17 17 17 17 17 17 17 16 17 17 16 16 17 16 16 16 16 16 16 16 15 15 15 15 14 14 14 14 14 14 14 15 15 15 15 15 15 15 15 15 15
18 18 18 18 17 17 17 17 17 17 17 17 16 16 16 16 16 16 16 16 16 16 15 15 15 15 14 14 14 14 14 14 14 14 14 15 15 15 15 15 15 15 15
18 18 18 18 18 17 17 17 17 17 17 17 17 16 16 16 16 16 16 16 16 16 15 15 15 15 15 14 14 14 14 14 14 14 14 14 14 14 15 15 15 15 14
19 19 18 18 18 17 17 17 17 17 17 17 17 16 16 16 16 16 16 16 16 16 16 16 15 15 15 15 14 14 14 14 14 14 14 14 14 14 14 14 14 14 14
19 19 19 18 18 18 17 17 17 17 17 17 17 17 16 16 16 16 16 16 16 16 16 16 16 15 15 15 15 15 14 14 14 14 14 14 14 14 14 14 14 14 14
19 19 19 18 18 18 18 17 17 17 17 17 17 17 16 16 16 16 16 16 16 16 16 16 16 16 16 15 15 15 15 15 14 14 14 14 14 14 14 14 14 14 14
19 19 19 19 18 18 18 18 18 17 17 17 17 17 17 16 16 16 16 16 16 16 16 16 16 16 16 15 15 15 15 15 15 14 14 14 14 14 14 14 14 14 14
19 19 19 19 18 18 18 18 18 17 17 17 17 16 16 16 16 16 16 16 16 16 16 16 16 16 15 15 15 15 15 15 15 14 14 14 14 14 14 14 14 14 14
18 19 19 18 18 18 18 18 18 18 17 17 17 17 16 16 16 16 16 16 16 16 16 16 15 15 15 15 15 15 15 15 14 14 14 14 14 14 14 14 14 14 13
18 18 18 18 18 18 18 18 17 17 17 17 16 16 16 16 16 16 16 16 16 16 16 15 15 15 15 15 15 14 14 14 14 14 13 13 13 13 13 13 13 13 12
17 17 18 18 18 18 17 17 17 16 16 16 16 16 16 15 15 15 15 15 15 15 15 15 14 14 14 14 14 14 13 13 13 13 12 12 12 12 12 12 12 12 12
16 16 17 17 17 17 16 16 16 16 15 15 15 15 15 15 15 15 15 15 14 14 14 14 13 13 13 13 13 12 12 12 12 11 11 11 11 11 11 11 11 11 11
15 15 16 16 15 15 16 16 15 15 15 14 14 14 14 14 14 14 14 13 13 13 13 13 12 12 12 12 11 11 11 11 11 11 10 10 10 10 10 10 10 10 10
14 15 15 15 15 15 15 15 15 14 14 14 14 13 13 13 13 13 13 12 12 12 12 11 11 11 11 11 11 10 10 10 10 10 9 9 9 9 9 8 8 8 8
13 14 14 14 14 14 14 14 13 13 13 13 13 13 12 12 12 12 11 11 11 11 11 10 10 10 10 10 10 9 9 9 9 9 8 8 8 8 7 7 7 7 7
13 13 13 13 13 13 13 13 12 12 12 12 12 12 11 11 11 11 11 11 10 10 10 10 9 9 9 9 8 8 8 8 8 7 7 7 7 6 6 6 6 6 6
12 13 13 12 12 12 12 12 12 11 11 11 11 11 11 11 10 10 10 10 10 10 9 9 9 8 8 8 8 8 7 7 7 6 6 6 6 5 5 5 5 5 4
12 12 12 12 11 11 11 11 11 11 11 11 10 10 10 10 10 10 9 9 9 9 9 8 8 8 7 7 7 6 6 6 6 5 5 5 5 4 4 4 4 4 3
11 11 11 11 11 11 10 10 10 10 10 10 10 10 10 9 9 9 9 8 8 8 8 7 7 7 6 6 5 5 5 4 4 4 4 4 3 3 3 3 3 2 2
Wind_Speed
5 6 7 8 8 9 9 9 9 9 8 6 6 5 4 3 3 3 6 7 8 8 7 5 4 4 3 3 3 3 3 3 1 3 3 3 3 2 2 2 1 1 1
5 7 8 8 10 10 10 10 10 10 9 7 5 4 5 4 3 3 4 6 8 8 7 6 4 4 4 4 3 3 3 2 2 2 3 2 3 3 2 2 1 1 1
8 8 9 9 10 10 10 10 10 9 9 8 7 6 5 4 3 3 2 3 6 7 7 7 6 4 4 4 3 3 4 3 2 2 3 3 3 1 2 2 1 1 1
6 7 8 9 10 9 8 9 9 9 9 10 10 11 7 5 5 4 3 3 4 6 7 8 7 5 4 4 3 2 3 4 2 2 2 2 2 2 0 2 2 2 1
6 8 8 9 9 8 8 9 9 9 8 9 10 10 7 4 4 4 5 3 2 3 5 7 6 5 4 4 3 3 3 2 3 2 2 2 2 1 2 1 2 2 2
5 6 6 7 7 8 8 9 10 9 9 9 9 9 10 8 7 6 5 4 2 2 3 5 5 5 4 4 4 3 3 3 3 2 2 2 2 2 2 1 1 1 2
7 7 7 8 8 9 9 9 10 9 9 10 9 9 9 9 9 7 7 6 4 3 4 4 4 4 4 5 4 4 3 3 3 3 2 2 2 2 2 2 1 1 2
6 8 8 9 9 10 10 10 10 9 9 10 8 8 8 7 6 6 6 7 5 5 5 5 5 5 6 5 4 3 3 3 3 3 2 2 1 2 2 3 3 1 1
7 7 8 9 9 9 9 10 10 9 9 9 8 8 7 7 7 6 6 5 5 4 6 6 6 6 6 6 5 3 3 4 3 3 3 2 1 2 2 2 2 3 1
6 7 7 8 8 8 8 8 9 9 8 8 8 7 7 7 7 6 7 6 6 5 6 6 7 6 6 6 5 4 4 4 3 3 3 3 2 2 2 2 2 2 3
6 7 7 7 7 7 8 8 8 7 7 8 7 7 7 6 6 6 7 7 6 6 7 7 7 7 7 7 6 6 5 5 4 4 4 5 4 3 3 3 3 3 3
6 7 8 8 7 8 8 8 8 7 7 7 7 7 6 6 6 6 6 6 6 6 7 7 7 8 8 8 8 8 7 7 7 6 6 6 4 5 4 4 4 4 5
6 6 7 8 8 8 8 8 8 8 7 7 7 6 6 6 6 6 5 5 5 5 6 6 8 8 8 8 9 8 8 8 8 7 7 7 6 6 5 5 5 5 5
7 6 6 6 7 8 8 8 7 7 7 7 7 6 6 6 6 5 5 5 5 5 5 5 6 7 7 7 7 7 7 7 7 6 6 6 6 7 6 5 6 5 5
7 7 6 6 6 7 7 7 7 7 7 7 6 6 5 5 4 4 4 4 4 4 3 3 3 3 4 5 6 6 6 6 5 4 4 3 3 4 4 4 4 4 4
7 7 6 6 6 7 7 7 7 8 8 8 7 5 5 4 4 3 3 3 3 2 2 2 2 2 1 2 5 5 4 3 3 2 1 1 2 2 2 1 1 2 3
7 7 6 5 5 5 6 7 6 7 7 7 6 5 5 5 4 4 3 3 2 3 3 3 3 4 3 4 4 4 4 3 3 3 3 3 4 5 3 3 3 3 2
7 7 6 6 5 6 6 7 8 8 7 7 6 6 6 5 5 5 4 4 4 5 5 5 6 6 6 8 8 8 7 6 6 5 4 4 4 5 5 4 4 4 4
7 7 7 8 8 8 8 10 10 9 8 7 7 6 6 6 6 6 6 5 6 7 6 6 7 8 8 10 10 8 6 6 5 5 5 4 3 5 5 4 4 5 5
10 9 10 11 10 8 9 12 11 10 8 8 7 7 7 8 8 7 7 6 7 7 7 8 8 8 8 9 10 8 5 5 4 4 4 5 5 5 5 3 3 5 6
11 11 13 12 9 9 12 14 12 10 8 8 9 9 9 9 8 8 7 7 8 8 8 9 8 8 8 9 10 8 5 4 3 3 3 4 6 6 6 3 2 4 6
12 12 13 12 10 10 14 15 12 8 9 10 11 10 9 8 8 9 8 7 8 9 7 7 7 6 6 8 8 10 8 5 3 2 2 3 6 6 6 4 5 6 5
12 11 13 13 11 10 12 14 8 8 10 11 10 9 9 8 7 8 8 6 6 6 5 5 5 4 4 6 9 9 8 7 3 2 4 5 7 7 5 6 8 6 5
12 11 13 14 11 10 10 9 8 8 11 11 9 8 9 8 8 7 6 5 5 5 4 4 3 3 4 5 5 5 5 6 5 4 5 6 6 5 5 6 6 5 5
10 11 12 12 10 9 9 8 7 9 11 10 8 8 8 8 8 8 7 6 5 3 4 3 3 3 3 4 6 4 4 3 3 3 3 4 5 6 6 6 7 7 7
11 11 11 11 10 9 9 7 7 8 10 8 7 6 6 6 7 7 8 13 11 12 11 9 6 5 6 6 8 8 8 8 6 4 3 4 5 6 6 7 7 7 8
Wind_Direction
186 170 171 175 174 169 170 175 170 160 154 147 147 142 145 141 125 129 133 137 139 138 129 122 113 113 114 121 119 103 88 65 61 84 49 22 25 32 19 9 0 325 265
162 164 167 172 180 177 174 174 173 168 167 166 156 141 134 127 117 111 122 138 140 141 137 132 127 122 115 109 110 117 108 69 49 112 96 38 4 5 14 8 4 343 332
178 173 177 177 175 177 177 178 174 167 162 153 131 116 97 89 99 117 123 131 140 141 138 138 133 131 127 128 124 132 133 130 64 64 134 141 206 301 340 8 18 353 345
175 172 173 174 178 177 172 165 162 157 158 153 151 149 151 156 171 161 149 125 131 138 142 140 137 132 128 131 136 132 134 137 134 85 61 104 143 147 349 340 356 351 341
177 176 178 177 172 165 163 158 153 152 157 159 159 154 147 146 134 131 134 128 116 133 144 143 138 136 135 137 128 121 124 129 141 144 130 101 75 88 141 229 329 345 329
174 168 164 154 151 150 152 154 154 154 155 156 158 157 154 149 145 148 153 152 142 139 152 148 146 145 144 145 140 129 129 123 123 128 136 146 148 158 149 169 242 298 309
169 164 159 157 157 158 158 156 157 157 157 156 160 162 161 160 165 165 168 166 168 181 187 168 162 160 162 157 147 138 138 135 131 137 135 142 147 145 145 142 150 285 313
169 168 168 165 166 165 161 159 161 160 156 159 164 161 159 163 170 172 172 180 187 191 182 178 180 177 170 165 156 148 157 148 145 149 144 140 150 162 163 155 146 111 329
176 169 167 169 167 168 169 167 164 160 162 164 161 161 164 169 176 177 178 185 192 190 182 183 184 185 181 174 164 172 177 165 172 172 171 169 180 176 174 164 159 152 188
171 167 169 169 166 166 166 162 163 165 163 163 168 173 174 181 179 175 187 195 199 192 183 191 194 191 189 183 177 184 188 181 187 186 185 195 197 191 182 177 177 173 176
179 175 171 166 157 152 154 157 158 155 160 166 170 170 175 179 175 184 199 200 198 195 198 199 197 198 197 191 190 201 195 198 205 202 204 216 202 201 199 190 188 192 186
173 168 163 157 157 159 159 163 164 164 169 170 171 178 177 175 180 194 203 199 201 203 204 199 201 205 204 197 199 207 205 207 215 218 217 228 218 219 215 208 213 214 210
158 155 157 164 169 169 168 169 171 173 172 168 171 176 179 181 188 195 196 196 202 208 206 199 205 209 206 203 208 210 211 214 220 221 223 233 226 236 234 228 233 235 229
155 156 162 168 170 171 171 172 174 172 168 165 171 180 186 188 191 189 190 196 198 203 210 210 215 215 212 211 212 214 219 223 227 226 227 234 231 240 243 241 243 243 243
153 159 166 169 164 164 167 169 169 165 166 165 172 184 179 173 173 178 187 189 191 203 204 205 222 220 214 219 212 212 217 220 227 227 225 234 237 243 241 246 252 246 250
153 152 152 154 160 168 168 165 164 162 159 163 169 163 157 161 164 168 167 164 164 162 150 176 189 195 221 210 194 187 191 188 196 201 169 107 43 20 14 332 287 244 247
140 140 142 145 148 150 151 153 148 140 142 145 140 137 140 137 129 127 120 120 116 112 113 116 107 92 62 75 103 128 118 108 100 95 87 75 53 43 25 13 18 13 356
126 126 124 118 112 115 119 117 114 118 120 120 117 117 118 111 105 102 96 91 92 95 94 89 91 87 69 75 87 95 93 83 75 76 83 81 52 32 24 15 12 1 346
104 103 102 99 100 104 108 106 102 103 106 106 103 100 103 101 91 85 85 88 92 88 84 83 83 82 67 69 80 89 91 86 73 64 65 72 59 28 24 22 358 341 334
91 93 92 92 92 95 103 101 98 96 94 94 92 88 91 94 92 88 86 86 89 88 86 79 73 75 67 59 68 78 86 82 70 53 43 42 32 18 19 14 347 329 324
92 92 89 86 86 92 96 93 90 87 87 87 85 82 84 89 90 85 80 85 87 84 81 80 70 65 63 57 60 67 75 81 74 52 26 13 8 7 5 354 328 306 310
90 90 92 86 77 84 95 92 84 81 84 84 81 77 74 80 87 86 80 81 89 88 83 80 68 55 48 52 55 58 63 72 82 56 15 353 355 358 354 352 339 336 339
97 95 96 90 76 71 88 95 88 87 85 82 78 76 74 72 77 85 87 82 81 91 89 84 78 58 41 37 41 45 46 46 51 31 12 2 356 351 351 347 344 347 348
103 101 98 92 82 75 80 88 93 92 90 85 79 77 78 74 66 66 70 81 83 93 96 93 85 63 41 31 24 25 27 24 23 14 3 359 356 353 342 341 344 342 333
99 98 98 97 91 83 77 76 84 91 89 83 79 76 76 80 74 66 56 63 60 82 103 100 96 80 51 16 19 26 18 7 1 1 8 7 357 351 345 341 336 335 332
103 99 96 95 90 84 77 68 76 92 95 89 82 82 84 85 91 92 74 54 62 66 71 77 80 64 58 44 37 30 25 21 21 32 5 350 342 336 333 330 329 327 325
Height
1485 1487 1489 1492 1496 1499 1502 1506 1511 1516 1521 1526 1530 1534 1538 1541 1543 1546 1547 1549 1550 1552 1553 1554 1555 1556 1558 1559 1560 1561 1563 1564 1565 1566 1567 1568 1569 1570 1571 1572 1573 1574 1575
1483 1485 1487 1489 1491 1495 1499 1504 1509 1514 1519 1524 1529 1533 1537 1540 1542 1544 1546 1548 1549 1551 1552 1553 1554 1555 1557 1558 1559 1561 1562 1563 1564 1566 1567 1568 1570 1570 1571 1571 1572 1573 1574
1481 1483 1485 1487 1489 1493 1497 1501 1506 1512 1518 1523 1527 1531 1535 1538 1541 1544 1546 1547 1549 1550 1552 1553 1554 1555 1556 1558 1559 1560 1561 1562 1564 1565 1567 1568 1568 1569 1570 1571 1571 1572 1573
1479 1481 1483 1485 1488 1491 1496 1501 1506 1511 1517 1521 1525 1529 1533 1536 1539 1543 1545 1546 1548 1549 1551 1552 1553 1554 1556 1557 1558 1559 1561 1562 1563 1564 1566 1567 1567 1569 1569 1571 1571 1571 1572
1478 1480 1482 1484 1488 1491 1495 1500 1505 1509 1515 1520 1524 1528 1532 1536 1539 1542 1544 1546 1547 1549 1550 1552 1553 1554 1555 1556 1558 1559 1560 1561 1563 1564 1565 1566 1567 1568 1569 1569 1570 1571 1572
1477 1479 1481 1484 1487 1491 1494 1499 1504 1509 1513 1518 1523 1527 1531 1535 1538 1541 1543 1545 1547 1548 1550 1551 1552 1553 1555 1556 1557 1558 1559 1561 1562 1563 1564 1565 1566 1567 1567 1568 1569 1569 1570
1475 1478 1480 1483 1486 1490 1493 1498 1502 1507 1512 1517 1521 1526 1530 1534 1537 1540 1542 1544 1546 1548 1549 1551 1552 1553 1554 1555 1556 1557 1558 1559 1561 1562 1563 1564 1565 1566 1566 1567 1567 1568 1569
1474 1477 1479 1482 1486 1489 1493 1497 1501 1506 1510 1515 1520 1525 1529 1533 1536 1539 1542 1544 1546 1547 1549 1550 1551 1552 1553 1554 1555 1556 1557 1558 1559 1560 1562 1563 1563 1564 1565 1565 1566 1566 1567
1473 1476 1478 1482 1485 1489 1492 1496 1501 1505 1510 1515 1519 1524 1528 1532 1535 1538 1541 1543 1545 1547 1548 1549 1550 1551 1552 1553 1554 1555 1556 1557 1558 1559 1560 1561 1562 1562 1563 1564 1564 1565 1565
1472 1475 1477 1481 1484 1488 1492 1496 1500 1505 1509 1514 1518 1523 1527 1530 1534 1537 1539 1542 1544 1545 1547 1548 1549 1550 1551 1552 1553 1554 1555 1556 1556 1557 1558 1559 1560 1561 1561 1562 1562 1562 1563
1471 1474 1478 1481 1484 1488 1492 1496 1500 1504 1508 1513 1517 1521 1525 1529 1532 1535 1537 1540 1542 1544 1545 1547 1548 1549 1550 1551 1552 1552 1553 1554 1555 1555 1556 1557 1558 1558 1559 1559 1560 1560 1560
1471 1474 1477 1481 1484 1488 1492 1496 1500 1504 1508 1512 1516 1520 1523 1527 1530 1533 1535 1538 1540 1542 1543 1545 1546 1547 1548 1549 1549 1550 1551 1552 1553 1553 1554 1555 1556 1556 1557 1557 1557 1557 1557
1470 1473 1477 1480 1483 1487 1491 1495 1499 1504 1507 1511 1515 1518 1522 1525 1528 1530 1533 1535 1537 1539 1541 1542 1544 1544 1545 1546 1547 1548 1548 1549 1550 1551 1552 1552 1553 1553 1554 1554 1554 1554 1553
1468 1472 1475 1479 1482 1486 1490 1494 1499 1503 1506 1510 1513 1516 1520 1523 1526 1528 1531 1533 1534 1536 1538 1539 1541 1541 1542 1543 1544 1544 1545 1546 1547 1547 1548 1549 1549 1549 1550 1550 1549 1549 1549
1467 1470 1473 1477 1481 1485 1489 1493 1497 1501 1505 1508 1511 1515 1518 1520 1523 1525 1528 1530 1531 1533 1534 1535 1537 1538 1538 1539 1540 1540 1541 1542 1543 1543 1544 1544 1545 1545 1545 1545 1545 1544 1544
1465 1468 1472 1475 1479 1483 1487 1491 1494 1498 1502 1506 1509 1512 1515 1518 1520 1522 1524 1526 1528 1529 1530 1531 1532 1533 1534 1534 1535 1536 1536 1537 1538 1539 1539 1539 1540 1540 1540 1539 1539 1539 1538
1464 1467 1470 1473 1477 1481 1485 1489 1493 1497 1500 1503 1507 1510 1512 1515 1517 1519 1521 1523 1524 1525 1526 1527 1528 1529 1529 1530 1531 1531 1532 1533 1533 1534 1534 1534 1535 1535 1535 1534 1534 1533 1532
1463 1466 1469 1473 1477 1480 1484 1488 1492 1495 1498 1502 1505 1507 1510 1513 1515 1516 1518 1519 1521 1522 1523 1524 1524 1525 1526 1527 1527 1528 1528 1529 1529 1530 1530 1530 1530 1530 1529 1529 1528 1528 1527
1463 1467 1470 1473 1476 1480 1484 1488 1492 1495 1498 1501 1504 1506 1509 1511 1513 1515 1516 1517 1518 1519 1520 1521 1522 1523 1523 1524 1525 1525 1526 1526 1526 1526 1526 1526 1525 1524 1524 1523 1522 1522 1521
1465 1468 1471 1474 1478 1482 1485 1488 1492 1495 1499 1501 1504 1506 1509 1510 1512 1514 1515 1516 1517 1518 1519 1519 1521 1521 1522 1522 1523 1523 1524 1523 1524 1524 1523 1522 1521 1520 1519 1518 1516 1515 1513
1467 1470 1473 1476 1480 1483 1486 1489 1493 1497 1500 1502 1504 1506 1509 1511 1512 1514 1515 1516 1517 1518 1519 1519 1520 1520 1521 1521 1521 1521 1521 1521 1521 1521 1520 1519 1518 1516 1514 1513 1511 1509 1506
1471 1473 1475 1479 1483 1486 1489 1491 1495 1499 1501 1504 1506 1508 1510 1512 1513 1515 1516 1517 1518 1518 1519 1520 1520 1520 1520 1520 1520 1519 1519 1518 1518 1517 1516 1515 1513 1512 1510 1509 1506 1504 1501
1474 1478 1480 1483 1487 1491 1493 1495 1499 1502 1504 1506 1508 1510 1512 1514 1515 1516 1517 1518 1519 1519 1519 1520 1520 1520 1519 1519 1518 1518 1517 1516 1515 1513 1512 1510 1509 1508 1506 1504 1501 1499 1496
1478 1482 1485 1488 1492 1496 1498 1500 1503 1506 1507 1509 1511 1513 1514 1516 1517 1518 1519 1519 1520 1520 1520 1520 1520 1519 1519 1518 1517 1516 1514 1513 1511 1510 1508 1506 1505 1503 1501 1499 1496 1493 1491
1483 1487 1490 1493 1497 1500 1503 1505 1507 1509 1510 1512 1513 1515 1517 1518 1518 1519 1520 1520 1520 1520 1520 1520 1519 1518 1517 1516 1515 1513 1511 1510 1508 1506 1504 1502 1500 1498 1496 1493 1491 1488 1486
1488 1492 1496 1499 1502 1505 1507 1509 1511 1512 1513 1514 1516 1517 1518 1519 1520 1520 1520 1520 1520 1520 1520 1519 1518 1516 1516 1514 1513 1511 1509 1507 1504 1502 1500 1498 1496 1493 1491 1488 1486 1483 1481